Hourly Data Report for May 15, 2016

All times are specified in Local Standard Time (LST). Add 1 hour to adjust for Daylight Saving Time where and when it is observed.

LA RONGE RCS
SASKATCHEWAN

55°08'47.020" N
105°16'13.030" W
378.60 m
4064149
71586
XOX

Download Data

Hourly Data (May 2016)
Hourly Data Report for May 15, 2016
TIME Temp Definition
°C
Dew Point Definition
°C
Rel Hum Definition
%
Wind Dir Definition
10's deg

Wind Spd Definition
km/h
Visibility Definition
km
Stn Press Definition
kPa
Hmdx Definition


Wind Chill Definition


Weather Definition


00:00 5.6 -2.9 55 29 3   97.19     LegendNANA
01:00 5.3 -2.7 56 29 8   97.17     LegendNANA
02:00 3.5 -3.4 60 26 5   97.16     LegendNANA
03:00 3.8 -2.1 65 25 3   97.15     LegendNANA
04:00 3.2 -2.3 67 9 2   97.16     LegendNANA
05:00 2.9 -1.8 71   0   97.17     LegendNANA
06:00 4.8 -1.0 66 26 7   97.16     LegendNANA
07:00 4.4 -0.3 71 0 1   97.15     LegendNANA
08:00 9.5 1.1 56 32 3   97.13     LegendNANA
09:00 12.4 1.8 49 24 7   97.09     LegendNANA
10:00 15.5 0.8 37 31 9   97.05     LegendNANA
11:00 17.2 -0.5 30 34 19   97.02     LegendNANA
12:00 17.3 -0.6 30 34 23   97.02     LegendNANA
13:00 17.8 -0.9 28 36 15   97.00     LegendNANA
14:00 19.1 0.6 29 3 11   96.97     LegendNANA
15:00 17.4 0.6 32 13 16   96.98     LegendNANA
16:00 18.0 1.2 32 13 19   96.96     LegendNANA
17:00 17.2 1.2 34 14 16   96.93     LegendNANA
18:00 16.5 1.1 35 13 14   96.95     LegendNANA
19:00 16.5 2.0 38 13 13   96.93     LegendNANA
20:00 15.4 2.1 41 13 11   96.95     LegendNANA
21:00 12.3 2.5 51 14 2   96.96     LegendNANA
22:00 11.1 2.7 56 17 6   96.97     LegendNANA
23:00 9.2 2.6 63 17 5   96.99     LegendNANA

Notes on Data Quality.

Legend

  • E = Estimated
  • M = Missing
  • NA = Not Available
Date modified: